This demonstration page uses our WeatherBlox Daily Observations layout. Learn more.

Left ArrowRight Arrow

Hourly Observations for September 11, 2021

Temp ( °F °C ) Dew Point ( °F °C ) Humidity (%) Winds ( mph kmh ) Pressure ( in mb ) Visibility ( mi km ) Precip ( " mm )
12:15 am 00:15 Clear 71 21.5 67 19.5 88 88 S 5 7 29.82 1010 10 16 N/A
12:35 am 00:35 Clear 71 21.5 67 19.3 87 87 S 6 9 29.82 1010 10 16 N/A
12:55 am 00:55 Clear 72 22 66 19.1 84 84 S 7 11 29.81 1010 10 16 N/A
1:15 am 01:15 Clear 72 22.2 66 18.8 81 81 SSW 8 13 29.81 1009 10 16 N/A
1:35 am 01:35 Clear 72 22 65 18.6 81 81 S 8 13 29.80 1009 10 16 N/A
1:55 am 01:55 Clear 72 22.1 65 18.5 80 80 S 9 15 29.80 1009 10 16 N/A
2:15 am 02:15 Clear 71 21.6 64 18 80 80 S 8 13 29.80 1009 10 16 N/A
2:35 am 02:35 Clear 71 21.5 64 17.8 80 80 S 7 11 29.81 1009 10 16 N/A
2:55 am 02:55 Clear 70 21 64 17.6 81 81 SSW 5 7 29.81 1009 10 16 N/A
3:15 am 03:15 Clear 70 20.9 63 17.4 80 80 SSW 7 11 29.81 1009 10 16 N/A
3:35 am 03:35 Clear 69 20.7 63 17.1 80 80 SSW 7 11 29.80 1009 10 16 N/A
3:55 am 03:55 Clear 69 20.5 63 17 80 80 SSW 7 11 29.80 1009 10 16 N/A
4:15 am 04:15 Clear 68 20.2 62 16.5 79 79 SSW 6 9 29.81 1009 10 16 N/A
4:35 am 04:35 Clear 68 20 61 16.1 78 78 SW 5 7 29.81 1009 10 16 N/A
4:55 am 04:55 Clear 66 19.1 60 15.6 80 80 SW 5 7 29.82 1010 10 16 N/A
5:15 am 05:15 Clear 67 19.3 60 15.5 79 79 SW 6 9 29.82 1010 10 16 N/A
5:35 am 05:35 Clear 67 19.3 60 15.3 78 78 SW 5 7 29.81 1010 10 16 N/A
5:55 am 05:55 Clear 67 19.5 59 15 75 75 SW 6 9 29.81 1010 10 16 N/A
6:15 am 06:15 Clear 68 20 59 15 73 73 SW 6 9 29.82 1010 10 16 N/A
6:35 am 06:35 Clear 68 19.9 58 14.7 72 72 WSW 5 7 29.82 1010 10 16 N/A
6:55 am 06:55 Hazy 64 17.9 57 14.1 79 79 NNW 3 6 29.83 1010 5 8 N/A
7:15 am 07:15 Sunny 64 17.6 58 14.7 83 83 SW 3 6 29.84 1010 10 16 N/A
7:35 am 07:35 Sunny 65 18.5 58 14.6 78 78 SW 5 7 29.83 1010 10 16 N/A
7:55 am 07:55 Sunny 65 18.5 59 15 80 80 N N/A 29.83 1010 10 16 N/A
8:15 am 08:15 Sunny 66 19 60 15.4 80 80 N N/A 29.84 1010 10 16 N/A
8:35 am 08:35 Sunny 67 19.5 60 15.7 79 79 N N/A 29.83 1010 10 16 N/A
8:55 am 08:55 Sunny 69 20.7 62 16.4 77 77 WNW 3 6 29.82 1010 10 16 N/A
9:15 am 09:15 Sunny 71 21.5 62 16.6 74 74 N N/A 29.82 1010 10 16 N/A
9:35 am 09:35 Sunny 73 22.7 63 17 70 70 SSW 5 7 29.81 1009 10 16 N/A
9:55 am 09:55 Sunny 75 23.8 63 17.2 67 67 SW 3 6 29.80 1009 10 16 N/A
10:15 am 10:15 Sunny 77 25 62 16.8 60 60 WSW 3 6 29.79 1009 10 16 N/A
10:35 am 10:35 Sunny 79 25.9 63 17.3 59 59 N N/A 29.78 1008 10 16 N/A
10:55 am 10:55 Sunny 80 26.9 64 17.7 57 57 SW 3 6 29.77 1008 10 16 N/A
11:15 am 11:15 Sunny 82 27.8 65 18.3 56 56 SSW 3 6 29.77 1008 10 16 N/A
11:35 am 11:35 Sunny 85 29.4 65 18.5 52 52 SW 3 6 29.76 1008 10 16 N/A
11:55 am 11:55 Sunny 87 30.7 66 18.8 49 49 SW 5 7 29.74 1007 10 16 N/A
12:15 pm 12:15 Sunny 89 31.6 65 18.1 45 45 SW 6 9 29.73 1007 10 16 N/A
12:35 pm 12:35 Sunny 91 32.6 65 18.1 42 42 SW 6 9 29.73 1007 10 16 N/A
12:55 pm 12:55 Sunny 92 33.2 61 15.9 35 35 SW 8 13 29.72 1007 10 16 N/A
1:15 pm 13:15 Sunny 93 33.8 62 16.7 36 36 SW 6 9 29.71 1006 10 16 N/A
1:35 pm 13:35 Sunny 94 34.4 61 16.3 34 34 SW 5 7 29.70 1006 10 16 N/A
1:55 pm 13:55 Sunny 94 34.5 61 16.1 33 33 SW 5 7 29.69 1006 10 16 N/A
2:15 pm 14:15 Sunny 95 34.9 58 14.6 29 29 SSW 7 11 29.69 1005 10 16 N/A
2:35 pm 14:35 Sunny 95 35 63 17.1 34 34 SW 6 9 29.68 1005 10 16 N/A
2:55 pm 14:55 Sunny 95 35 62 16.6 33 33 SSW 8 13 29.67 1005 10 16 N/A
3:15 pm 15:15 Sunny 95 35.1 62 16.7 33 33 S 9 15 29.66 1004 10 16 N/A
3:35 pm 15:35 Sunny 95 34.9 63 17.3 35 35 S 8 13 29.66 1004 10 16 N/A
3:55 pm 15:55 Sunny 95 35.1 62 16.6 33 33 S 7 11 29.66 1004 10 16 N/A
4:15 pm 16:15 Sunny 94 34.6 64 18 37 37 SSE 7 11 29.65 1004 10 16 N/A
4:35 pm 16:35 Sunny 94 34.5 66 19.1 40 40 SSE 6 9 29.65 1004 10 16 N/A
4:55 pm 16:55 Sunny 94 34.6 65 18.5 38 38 SSE 7 11 29.65 1004 10 16 N/A
5:15 pm 17:15 Sunny 94 34.5 64 17.9 37 37 SSE 5 7 29.65 1004 10 16 N/A
5:35 pm 17:35 Sunny 94 34.5 66 19 40 40 SSE 5 7 29.64 1004 10 16 N/A
5:55 pm 17:55 Sunny 94 34.3 65 18.6 39 39 SSE 3 6 29.66 1004 10 16 N/A
6:15 pm 18:15 Sunny 93 33.8 68 19.9 44 44 N N/A 29.66 1004 10 16 N/A
6:35 pm 18:35 Sunny 90 32.2 71 21.5 53 53 NNW 5 7 29.67 1005 10 16 N/A
6:55 pm 18:55 Sunny 88 31.1 74 23.2 63 63 ENE 5 7 29.68 1005 10 16 N/A
7:15 pm 19:15 Sunny 87 30.6 73 22.5 62 62 N N/A 29.68 1005 10 16 N/A
7:35 pm 19:35 Sunny 85 29.7 71 21.4 61 61 N N/A 29.69 1005 10 16 N/A
7:55 pm 19:55 Clear 80 26.9 73 23 79 79 NE 6 9 29.71 1006 10 16 N/A
8:15 pm 20:15 Hazy 79 26.1 72 22.4 80 80 NNE 6 9 29.73 1007 5 8 N/A
8:35 pm 20:35 Clear with Light Rain 77 24.8 72 22.2 86 86 NE 7 11 29.74 1007 10 16 N/A
8:55 pm 20:55 Clear 79 26.1 71 21.4 75 75 ENE 9 15 29.74 1007 10 16 N/A
9:15 pm 21:15 Clear 78 25.8 69 20.6 73 73 ENE 7 11 29.74 1007 10 16 N/A
9:35 pm 21:35 Clear 76 24.6 69 20.7 79 79 ENE 8 13 29.76 1008 10 16 N/A
9:55 pm 21:55 Clear 77 24.8 69 20.3 76 76 ENE 9 15 29.76 1008 10 16 N/A
10:15 pm 22:15 Clear 76 24.3 68 20 77 77 ENE 8 13 29.77 1008 10 16 N/A
10:35 pm 22:35 Clear 74 23.6 68 19.9 80 80 ENE 9 15 29.78 1008 10 16 N/A
10:55 pm 22:55 Clear 74 23.2 67 19.6 80 80 NE 8 13 29.78 1009 10 16 N/A
11:15 pm 23:15 Clear 73 23 67 19.5 81 81 NE 6 9 29.78 1009 10 16 N/A
11:35 pm 23:35 Clear 73 22.8 67 19.6 82 82 ENE 7 11 29.78 1009 10 16 N/A
11:55 pm 23:55 Clear 73 23 67 19.4 80 80 E 6 9 29.78 1009 10 16 N/A

Powered by AerisWeather